| time (UTC) | temp F | wind direction | speed knots | gust knots | rain 1hr in | rain 24hr in | rain mn in | humidity % | barometer mb |
| 20260508132734 | 67 | 202 | 0.0 | 0.0 | 0.00 | 0.00 | 0.00 | 26 | 995.2 |
| 20260508132231 | 66 | 225 | 0.0 | 0.0 | 0.00 | 0.00 | 0.00 | 26 | 995.2 |
| 20260508131730 | 66 | 236 | 0.0 | 0.0 | 0.00 | 0.00 | 0.00 | 27 | 995.4 |
| 20260508131302 | 65 | 202 | 3.5 | 3.5 | 0.00 | 0.00 | 0.00 | 27 | 995.5 |
| 20260508131227 | 65 | 202 | 3.5 | 3.5 | 0.00 | 0.00 | 0.00 | 27 | 995.5 |
| 20260508130725 | 65 | 247 | 5.2 | 5.2 | 0.00 | 0.00 | 0.00 | 27 | 995.4 |
| 20260508130223 | 65 | 270 | 2.6 | 2.6 | 0.00 | 0.00 | 0.00 | 28 | 995.6 |
| 20260508125721 | 65 | 101 | 0.0 | 0.0 | 0.00 | 0.00 | 0.00 | 30 | 995.7 |
| 20260508125218 | 65 | 270 | 0.0 | 0.0 | 0.00 | 0.00 | 0.00 | 28 | 995.8 |
| 20260508124717 | 65 | 247 | 0.0 | 0.0 | 0.00 | 0.00 | 0.00 | 28 | 995.7 |
| 20260508124214 | 65 | 315 | 0.0 | 0.0 | 0.00 | 0.00 | 0.00 | 28 | 995.9 |
| 20260508123802 | 65 | 90 | 0.0 | 0.9 | 0.00 | 0.00 | 0.00 | 28 | 996.0 |
| 20260508123712 | 65 | 90 | 0.0 | 0.9 | 0.00 | 0.00 | 0.00 | 28 | 996.0 |
| 20260508123210 | 66 | 168 | 0.0 | 0.0 | 0.00 | 0.00 | 0.00 | 28 | 996.0 |
| 20260508122708 | 66 | 157 | 0.0 | 0.0 | 0.00 | 0.00 | 0.00 | 30 | 995.9 |
| 20260508122205 | 65 | 292 | 0.0 | 3.5 | 0.00 | 0.00 | 0.00 | 30 | 996.1 |
| 20260508121704 | 64 | 22 | 0.9 | 4.3 | 0.00 | 0.00 | 0.00 | 31 | 996.1 |
| 20260508121201 | 63 | 90 | 2.6 | 5.2 | 0.00 | 0.00 | 0.00 | 33 | 996.3 |
| 20260508120730 | 63 | 236 | 1.7 | 7.0 | 0.00 | 0.00 | 0.00 | 32 | 996.3 |
| 20260508120659 | 63 | 236 | 1.7 | 7.0 | 0.00 | 0.00 | 0.00 | 32 | 996.3 |
| 20260508120157 | 64 | 112 | 0.9 | 3.5 | 0.00 | 0.00 | 0.00 | 32 | 996.5 |
| 20260508115736 | 64 | 90 | 1.7 | 5.2 | 0.00 | 0.00 | 0.00 | 30 | 996.5 |
| 20260508115655 | 64 | 90 | 1.7 | 5.2 | 0.00 | 0.00 | 0.00 | 30 | 996.5 |
| 20260508115152 | 65 | 157 | 2.6 | 5.2 | 0.00 | 0.00 | 0.00 | 28 | 996.4 |
| 20260508114722 | 65 | 225 | 2.6 | 3.5 | 0.00 | 0.00 | 0.00 | 30 | 996.4 |
| 20260508114651 | 65 | 225 | 2.6 | 3.5 | 0.00 | 0.00 | 0.00 | 30 | 996.4 |
| 20260508114148 | 64 | 135 | 0.9 | 2.6 | 0.00 | 0.00 | 0.00 | 31 | 996.5 |
| 20260508113646 | 64 | 292 | 2.6 | 12.2 | 0.00 | 0.00 | 0.00 | 30 | 996.6 |
| 20260508113143 | 64 | 225 | 7.0 | 7.0 | 0.00 | 0.00 | 0.00 | 28 | 996.6 |
| 20260508112713 | 64 | 247 | 0.9 | 5.2 | 0.00 | 0.00 | 0.00 | 31 | 996.8 |
| 20260508112642 | 64 | 247 | 0.9 | 5.2 | 0.00 | 0.00 | 0.00 | 31 | 996.8 |
| 20260508112139 | 64 | 292 | 2.6 | 5.2 | 0.00 | 0.00 | 0.00 | 30 | 997.0 |
| 20260508111637 | 64 | 315 | 2.6 | 7.8 | 0.00 | 0.00 | 0.00 | 31 | 996.8 |
| 20260508111135 | 64 | 67 | 0.0 | 3.5 | 0.00 | 0.00 | 0.00 | 32 | 997.0 |
| 20260508110633 | 63 | 270 | 0.0 | 0.9 | 0.00 | 0.00 | 0.00 | 33 | 997.0 |
| 20260508110130 | 63 | 303 | 0.0 | 1.7 | 0.00 | 0.00 | 0.00 | 32 | 997.1 |
| 20260508105701 | 64 | 112 | 0.0 | 0.0 | 0.00 | 0.00 | 0.00 | 31 | 997.1 |
| 20260508105629 | 64 | 112 | 0.0 | 0.0 | 0.00 | 0.00 | 0.00 | 31 | 997.1 |
| 20260508105126 | 64 | 202 | 0.0 | 0.0 | 0.00 | 0.00 | 0.00 | 31 | 997.0 |
| 20260508104624 | 64 | 225 | 0.0 | 0.0 | 0.00 | 0.00 | 0.00 | 33 | 997.1 |
| 20260508104122 | 63 | 0 | 0.0 | 0.0 | 0.00 | 0.00 | 0.00 | 33 | 997.1 |
| 20260508103705 | 62 | 247 | 0.0 | 0.0 | 0.00 | 0.00 | 0.00 | 34 | 997.2 |
| 20260508103620 | 62 | 247 | 0.0 | 0.0 | 0.00 | 0.00 | 0.00 | 34 | 997.2 |
| 20260508103117 | 62 | 247 | 0.0 | 0.0 | 0.00 | 0.00 | 0.00 | 33 | 997.1 |
| 20260508102648 | 61 | 225 | 0.0 | 0.0 | 0.00 | 0.00 | 0.00 | 35 | 997.2 |
| 20260508102616 | 61 | 225 | 0.0 | 0.0 | 0.00 | 0.00 | 0.00 | 35 | 997.2 |
| 20260508102113 | 61 | 315 | 0.0 | 0.0 | 0.00 | 0.00 | 0.00 | 36 | 997.2 |
| 20260508101643 | 62 | 225 | 0.0 | 0.0 | 0.00 | 0.00 | 0.00 | 35 | 997.4 |
| 20260508101611 | 62 | 225 | 0.0 | 0.0 | 0.00 | 0.00 | 0.00 | 35 | 997.4 |
| 20260508101109 | 62 | 281 | 0.0 | 0.0 | 0.00 | 0.00 | 0.00 | 36 | 997.3 |
| 20260508100607 | 61 | 202 | 0.0 | 0.0 | 0.00 | 0.00 | 0.00 | 36 | 997.4 |
| 20260508100104 | 61 | 202 | 0.0 | 0.0 | 0.00 | 0.00 | 0.00 | 38 | 997.3 |
| 20260508095603 | 61 | 247 | 0.0 | 0.0 | 0.00 | 0.00 | 0.00 | 38 | 997.4 |
| 20260508095100 | 61 | 258 | 0.0 | 0.0 | 0.00 | 0.00 | 0.00 | 39 | 997.5 |
| 20260508094558 | 60 | 225 | 0.0 | 2.6 | 0.00 | 0.00 | 0.00 | 39 | 997.4 |
| 20260508094128 | 60 | 247 | 0.0 | 0.0 | 0.00 | 0.00 | 0.00 | 40 | 997.5 |
| 20260508094056 | 60 | 247 | 0.0 | 0.0 | 0.00 | 0.00 | 0.00 | 40 | 997.5 |
| 20260508093625 | 59 | 90 | 0.0 | 0.0 | 0.00 | 0.00 | 0.00 | 42 | 997.6 |
| 20260508093554 | 59 | 90 | 0.0 | 0.0 | 0.00 | 0.00 | 0.00 | 42 | 997.6 |
| 20260508093051 | 59 | 157 | 0.0 | 0.0 | 0.00 | 0.00 | 0.00 | 41 | 997.6 |
| 20260508092550 | 59 | 270 | 0.0 | 0.0 | 0.00 | 0.00 | 0.00 | 42 | 997.7 |
| 20260508092047 | 59 | 247 | 0.0 | 0.0 | 0.00 | 0.00 | 0.00 | 45 | 997.6 |
| 20260508091640 | 59 | 236 | 0.0 | 0.0 | 0.00 | 0.00 | 0.00 | 47 | 997.7 |
| 20260508091545 | 59 | 236 | 0.0 | 0.0 | 0.00 | 0.00 | 0.00 | 47 | 997.7 |
| 20260508091042 | 58 | 236 | 0.0 | 0.0 | 0.00 | 0.00 | 0.00 | 49 | 997.8 |
| 20260508090541 | 58 | 135 | 0.0 | 0.0 | 0.00 | 0.00 | 0.00 | 50 | 997.6 |
| 20260508090110 | 57 | 247 | 0.0 | 0.0 | 0.00 | 0.00 | 0.00 | 51 | 997.7 |
| 20260508090038 | 57 | 247 | 0.0 | 0.0 | 0.00 | 0.00 | 0.00 | 51 | 997.7 |
| 20260508085627 | 57 | 247 | 0.0 | 4.3 | 0.00 | 0.00 | 0.00 | 50 | 997.7 |
| 20260508085536 | 57 | 247 | 0.0 | 4.3 | 0.00 | 0.00 | 0.00 | 50 | 997.7 |
| 20260508085034 | 58 | 135 | 2.6 | 2.6 | 0.00 | 0.00 | 0.00 | 51 | 997.7 |
| 20260508084618 | 57 | 168 | 0.0 | 0.0 | 0.00 | 0.00 | 0.00 | 55 | 997.8 |
| 20260508084532 | 57 | 168 | 0.0 | 0.0 | 0.00 | 0.00 | 0.00 | 55 | 997.8 |
| 20260508084029 | 57 | 0 | 0.0 | 0.0 | 0.00 | 0.00 | 0.00 | 54 | 997.8 |
| 20260508083528 | 57 | 0 | 0.0 | 4.3 | 0.00 | 0.00 | 0.00 | 54 | 997.7 |
| 20260508083025 | 57 | 225 | 0.0 | 0.9 | 0.00 | 0.00 | 0.00 | 54 | 997.8 |
| 20260508082523 | 57 | 270 | 0.0 | 0.0 | 0.00 | 0.00 | 0.00 | 54 | 997.7 |
| 20260508082021 | 57 | 45 | 0.0 | 0.0 | 0.00 | 0.00 | 0.00 | 56 | 997.5 |
| 20260508081559 | 56 | 292 | 0.0 | 0.0 | 0.00 | 0.00 | 0.00 | 57 | 997.5 |
| 20260508081519 | 56 | 292 | 0.0 | 0.0 | 0.00 | 0.00 | 0.00 | 57 | 997.5 |
| 20260508081016 | 55 | 191 | 0.0 | 0.0 | 0.00 | 0.00 | 0.00 | 59 | 997.6 |
| 20260508080515 | 54 | 236 | 0.0 | 0.0 | 0.00 | 0.00 | 0.00 | 61 | 997.6 |
| 20260508080012 | 53 | 247 | 0.0 | 0.0 | 0.00 | 0.00 | 0.00 | 63 | 997.6 |
| 20260508075510 | 53 | 225 | 0.0 | 0.0 | 0.00 | 0.00 | 0.00 | 65 | 997.7 |
| 20260508075008 | 52 | 45 | 0.0 | 0.0 | 0.00 | 0.00 | 0.00 | 65 | 997.6 |
| 20260508074548 | 52 | 225 | 0.0 | 0.0 | 0.00 | 0.00 | 0.00 | 66 | 997.6 |
| 20260508074506 | 52 | 225 | 0.0 | 0.0 | 0.00 | 0.00 | 0.00 | 66 | 997.6 |
| 20260508074003 | 52 | 236 | 0.0 | 0.0 | 0.00 | 0.00 | 0.00 | 66 | 997.6 |
| 20260508073502 | 52 | 225 | 0.0 | 0.0 | 0.00 | 0.00 | 0.00 | 66 | 997.5 |
| 20260508072959 | 52 | 213 | 0.0 | 0.0 | 0.00 | 0.00 | 0.00 | 66 | 997.4 |
| 20260508072457 | 51 | 180 | 0.0 | 0.0 | 0.00 | 0.00 | 0.00 | 66 | 997.4 |
| 20260508071955 | 51 | 225 | 0.0 | 0.0 | 0.00 | 0.00 | 0.00 | 67 | 997.5 |
| 20260508071022 | 51 | 180 | 0.0 | 0.0 | 0.00 | 0.00 | 0.00 | 68 | 997.3 |
| 20260508070950 | 51 | 180 | 0.0 | 0.0 | 0.00 | 0.00 | 0.00 | 68 | 997.3 |
| 20260508070449 | 51 | 225 | 0.0 | 0.0 | 0.00 | 0.00 | 0.00 | 69 | 997.2 |
| 20260508065946 | 50 | 180 | 0.0 | 0.0 | 0.00 | 0.00 | 0.00 | 69 | 997.1 |
| 20260508065444 | 50 | 180 | 0.0 | 0.0 | 0.00 | 0.00 | 0.00 | 69 | 997.1 |
| 20260508064941 | 50 | 225 | 0.0 | 0.0 | 0.00 | 0.00 | 0.00 | 67 | 997.0 |
| 20260508064542 | 50 | 135 | 0.0 | 0.0 | 0.00 | 0.00 | 0.00 | 68 | 997.1 |
| 20260508064440 | 50 | 135 | 0.0 | 0.0 | 0.00 | 0.00 | 0.00 | 68 | 997.1 |
| 20260508063937 | 49 | 135 | 0.0 | 0.0 | 0.00 | 0.00 | 0.00 | 67 | 996.8 |
| 20260508063436 | 49 | 135 | 0.0 | 0.0 | 0.00 | 0.00 | 0.00 | 67 | 996.9 |
| 20260508062933 | 50 | 90 | 0.0 | 0.0 | 0.00 | 0.00 | 0.00 | 67 | 996.9 |
| 20260508062508 | 50 | 90 | 0.0 | 0.0 | 0.00 | 0.00 | 0.00 | 66 | 997.0 |
| 20260508062431 | 50 | 90 | 0.0 | 0.0 | 0.00 | 0.00 | 0.00 | 66 | 997.0 |
| 20260508061928 | 50 | 135 | 0.0 | 0.0 | 0.00 | 0.00 | 0.00 | 66 | 996.9 |
| 20260508061521 | 50 | 225 | 0.0 | 0.0 | 0.00 | 0.00 | 0.00 | 67 | 996.9 |
| 20260508061427 | 50 | 225 | 0.0 | 0.0 | 0.00 | 0.00 | 0.00 | 67 | 996.9 |
| 20260508060924 | 50 | 90 | 0.0 | 0.9 | 0.00 | 0.00 | 0.00 | 66 | 996.8 |
| 20260508060459 | 50 | 225 | 0.0 | 0.0 | 0.00 | 0.00 | 0.00 | 65 | 996.7 |
| 20260508060422 | 50 | 225 | 0.0 | 0.0 | 0.00 | 0.00 | 0.00 | 65 | 996.7 |
| 20260508060024 | 50 | 236 | 0.0 | 0.0 | 0.00 | 0.00 | 0.00 | 66 | 996.7 |
| 20260508055920 | 50 | 236 | 0.0 | 0.0 | 0.00 | 0.00 | 0.00 | 66 | 996.7 |
| 20260508055418 | 50 | 315 | 0.0 | 0.0 | 0.00 | 0.00 | 0.00 | 66 | 996.8 |
| 20260508054915 | 50 | 135 | 0.0 | 0.0 | 0.00 | 0.00 | 0.00 | 66 | 996.5 |
| 20260508054507 | 50 | 90 | 0.0 | 0.0 | 0.00 | 0.00 | 0.00 | 67 | 996.3 |
| 20260508054414 | 50 | 90 | 0.0 | 0.0 | 0.00 | 0.00 | 0.00 | 67 | 996.3 |
| 20260508053911 | 50 | 135 | 0.9 | 0.9 | 0.00 | 0.00 | 0.00 | 67 | 996.4 |
| 20260508053450 | 49 | 90 | 0.0 | 0.0 | 0.00 | 0.00 | 0.00 | 67 | 996.6 |
| 20260508053409 | 49 | 90 | 0.0 | 0.0 | 0.00 | 0.00 | 0.00 | 67 | 996.6 |
| 20260508052907 | 49 | 225 | 0.0 | 0.0 | 0.00 | 0.00 | 0.00 | 67 | 996.5 |
| 20260508052447 | 49 | 180 | 0.0 | 0.0 | 0.00 | 0.00 | 0.00 | 66 | 996.4 |
| 20260508052405 | 49 | 180 | 0.0 | 0.0 | 0.00 | 0.00 | 0.00 | 66 | 996.4 |
| 20260508051902 | 49 | 90 | 0.0 | 0.0 | 0.00 | 0.00 | 0.00 | 66 | 996.5 |
| 20260508051513 | 49 | 180 | 0.0 | 0.0 | 0.00 | 0.00 | 0.00 | 67 | 996.4 |
| 20260508051401 | 49 | 180 | 0.0 | 0.0 | 0.00 | 0.00 | 0.00 | 67 | 996.4 |
| 20260508050858 | 50 | 191 | 0.0 | 0.0 | 0.00 | 0.00 | 0.00 | 68 | 996.4 |
| 20260508050356 | 50 | 135 | 0.0 | 0.0 | 0.00 | 0.00 | 0.00 | 67 | 996.5 |
| 20260508045352 | 50 | 90 | 0.0 | 0.0 | 0.00 | 0.00 | 0.00 | 66 | 996.4 |
| 20260508044849 | 50 | 135 | 0.0 | 0.0 | 0.00 | 0.00 | 0.00 | 67 | 996.5 |
| 20260508044422 | 50 | 135 | 0.0 | 0.0 | 0.00 | 0.00 | 0.00 | 67 | 996.5 |
| 20260508044348 | 50 | 135 | 0.0 | 0.0 | 0.00 | 0.00 | 0.00 | 67 | 996.5 |
| 20260508043845 | 50 | 67 | 0.0 | 0.0 | 0.00 | 0.00 | 0.00 | 66 | 996.4 |
| 20260508043343 | 50 | 225 | 0.0 | 0.0 | 0.00 | 0.00 | 0.00 | 67 | 996.5 |
| 20260508042841 | 50 | 45 | 0.0 | 0.0 | 0.00 | 0.00 | 0.00 | 67 | 996.3 |
| 20260508042339 | 50 | 270 | 0.0 | 0.0 | 0.00 | 0.00 | 0.00 | 67 | 996.4 |
| 20260508041836 | 50 | 202 | 0.0 | 0.0 | 0.00 | 0.00 | 0.00 | 67 | 996.3 |
| 20260508041335 | 50 | 135 | 0.0 | 0.0 | 0.00 | 0.00 | 0.00 | 67 | 996.2 |
| 20260508040832 | 50 | 78 | 0.0 | 0.0 | 0.00 | 0.00 | 0.00 | 67 | 996.3 |
| 20260508040401 | 50 | 90 | 0.0 | 0.0 | 0.00 | 0.00 | 0.00 | 67 | 996.3 |
| 20260508040330 | 50 | 90 | 0.0 | 0.0 | 0.00 | 0.00 | 0.00 | 67 | 996.3 |
| 20260508035827 | 50 | 180 | 0.0 | 0.0 | 0.00 | 0.00 | 0.00 | 67 | 996.2 |
| 20260508035326 | 50 | 90 | 0.0 | 0.0 | 0.00 | 0.00 | 0.00 | 66 | 996.4 |
| 20260508034823 | 49 | 90 | 0.0 | 0.0 | 0.00 | 0.00 | 0.00 | 67 | 996.3 |
| 20260508034414 | 49 | 270 | 0.0 | 0.0 | 0.00 | 0.00 | 0.00 | 68 | 996.1 |
| 20260508034321 | 49 | 270 | 0.0 | 0.0 | 0.00 | 0.00 | 0.00 | 68 | 996.1 |
| 20260508033819 | 49 | 135 | 0.0 | 0.0 | 0.00 | 0.00 | 0.00 | 67 | 996.2 |
| 20260508033317 | 49 | 270 | 0.0 | 0.0 | 0.00 | 0.00 | 0.00 | 68 | 996.2 |
| 20260508032814 | 49 | 135 | 0.0 | 0.0 | 0.00 | 0.00 | 0.00 | 67 | 996.4 |
| 20260508032347 | 49 | 90 | 0.0 | 0.0 | 0.00 | 0.00 | 0.00 | 67 | 996.3 |
| 20260508032313 | 49 | 90 | 0.0 | 0.0 | 0.00 | 0.00 | 0.00 | 67 | 996.3 |
| 20260508031810 | 50 | 135 | 0.0 | 0.0 | 0.00 | 0.00 | 0.00 | 67 | 996.3 |
| 20260508031308 | 50 | 180 | 0.0 | 0.0 | 0.00 | 0.00 | 0.00 | 67 | 996.5 |
| 20260508030806 | 50 | 90 | 0.0 | 0.0 | 0.00 | 0.00 | 0.00 | 67 | 996.5 |
| 20260508030304 | 50 | 270 | 0.0 | 0.0 | 0.00 | 0.00 | 0.00 | 67 | 996.3 |
| 20260508025801 | 50 | 135 | 0.0 | 0.0 | 0.00 | 0.00 | 0.00 | 66 | 996.5 |
| 20260508025300 | 50 | 135 | 0.0 | 0.0 | 0.00 | 0.00 | 0.00 | 67 | 996.4 |
| 20260508024757 | 50 | 315 | 0.0 | 0.0 | 0.00 | 0.00 | 0.00 | 68 | 996.4 |
| 20260508024341 | 50 | 270 | 0.0 | 0.0 | 0.00 | 0.00 | 0.00 | 67 | 996.4 |
| 20260508024255 | 50 | 270 | 0.0 | 0.0 | 0.00 | 0.00 | 0.00 | 67 | 996.4 |
| 20260508023841 | 50 | 270 | 0.0 | 0.0 | 0.00 | 0.00 | 0.00 | 67 | 996.7 |
| 20260508023753 | 50 | 270 | 0.0 | 0.0 | 0.00 | 0.00 | 0.00 | 67 | 996.7 |
| 20260508023251 | 50 | 180 | 0.0 | 0.0 | 0.00 | 0.00 | 0.00 | 67 | 996.6 |
| 20260508022748 | 50 | 180 | 0.0 | 0.0 | 0.00 | 0.00 | 0.00 | 67 | 996.6 |
| 20260508022247 | 50 | 78 | 0.0 | 0.0 | 0.00 | 0.00 | 0.00 | 66 | 996.5 |
| 20260508021242 | 50 | 225 | 0.0 | 0.0 | 0.00 | 0.00 | 0.00 | 72 | 996.7 |
| 20260508020740 | 50 | 0 | 0.0 | 0.0 | 0.00 | 0.00 | 0.00 | 67 | 996.7 |
| 20260508020310 | 50 | 180 | 0.0 | 0.0 | 0.00 | 0.00 | 0.00 | 67 | 996.7 |
| 20260508020238 | 50 | 180 | 0.0 | 0.0 | 0.00 | 0.00 | 0.00 | 67 | 996.7 |
| 20260508015735 | 50 | 225 | 0.0 | 0.0 | 0.00 | 0.00 | 0.00 | 67 | 996.9 |
| 20260508015316 | 50 | 45 | 0.0 | 0.0 | 0.00 | 0.00 | 0.00 | 67 | 996.9 |
| 20260508015234 | 50 | 45 | 0.0 | 0.0 | 0.00 | 0.00 | 0.00 | 67 | 996.9 |
| 20260508014731 | 50 | 315 | 0.0 | 0.0 | 0.00 | 0.00 | 0.00 | 66 | 996.9 |
| 20260508014229 | 50 | 180 | 0.0 | 0.0 | 0.00 | 0.00 | 0.00 | 68 | 996.9 |
| 20260508013726 | 50 | 270 | 0.0 | 0.0 | 0.00 | 0.00 | 0.00 | 69 | 996.8 |
| 20260508013225 | 51 | 225 | 0.0 | 0.0 | 0.00 | 0.00 | 0.00 | 66 | 996.8 |
| 20260508012722 | 51 | 292 | 0.0 | 0.0 | 0.00 | 0.00 | 0.00 | 66 | 996.9 |
| 20260508012220 | 51 | 270 | 0.0 | 0.0 | 0.00 | 0.00 | 0.00 | 65 | 997.1 |
| 20260508011718 | 51 | 225 | 0.0 | 0.0 | 0.00 | 0.00 | 0.00 | 66 | 996.8 |
| 20260508011216 | 51 | 45 | 0.0 | 0.0 | 0.00 | 0.00 | 0.00 | 67 | 997.2 |
| 20260508010713 | 51 | 191 | 0.0 | 0.0 | 0.00 | 0.00 | 0.00 | 67 | 997.2 |
| 20260508010212 | 51 | 90 | 0.0 | 0.0 | 0.00 | 0.00 | 0.00 | 67 | 996.9 |
| 20260508005709 | 51 | 180 | 0.0 | 0.0 | 0.00 | 0.00 | 0.00 | 68 | 996.9 |
| 20260508005207 | 51 | 90 | 0.0 | 0.0 | 0.00 | 0.00 | 0.00 | 66 | 997.1 |
| 20260508004705 | 51 | 180 | 0.0 | 0.0 | 0.00 | 0.00 | 0.00 | 67 | 997.0 |
| 20260508004203 | 51 | 180 | 0.0 | 0.0 | 0.00 | 0.00 | 0.00 | 66 | 997.0 |
| 20260508003700 | 51 | 90 | 0.0 | 0.0 | 0.00 | 0.00 | 0.00 | 65 | 997.1 |
| 20260508002656 | 52 | 180 | 0.0 | 0.0 | 0.00 | 0.00 | 0.00 | 66 | 997.1 |
| 20260508002154 | 52 | 180 | 0.0 | 0.0 | 0.00 | 0.00 | 0.00 | 65 | 997.2 |
| 20260508001652 | 52 | 180 | 0.0 | 0.0 | 0.00 | 0.00 | 0.00 | 65 | 997.1 |
| 20260508001233 | 52 | 90 | 0.0 | 0.0 | 0.00 | 0.00 | 0.00 | 65 | 997.1 |
| 20260508001150 | 52 | 90 | 0.0 | 0.0 | 0.00 | 0.00 | 0.00 | 65 | 997.1 |
| 20260508000647 | 52 | 225 | 0.0 | 0.0 | 0.00 | 0.00 | 0.00 | 65 | 997.3 |
| 20260508000230 | 52 | 135 | 0.0 | 0.0 | 0.00 | 0.00 | 0.00 | 66 | 997.2 |
| 20260508000146 | 52 | 135 | 0.0 | 0.0 | 0.00 | 0.00 | 0.00 | 66 | 997.2 |
| 20260507235643 | 52 | 135 | 0.0 | 0.0 | 0.00 | 0.00 | 0.00 | 65 | 997.1 |
| 20260507235142 | 52 | 180 | 0.0 | 0.0 | 0.00 | 0.00 | 0.00 | 64 | 997.2 |
| 20260507234639 | 52 | 135 | 0.0 | 0.0 | 0.00 | 0.00 | 0.00 | 64 | 997.2 |
| 20260507234218 | 52 | 135 | 0.0 | 0.0 | 0.00 | 0.00 | 0.00 | 64 | 997.3 |
| 20260507234137 | 52 | 135 | 0.0 | 0.0 | 0.00 | 0.00 | 0.00 | 64 | 997.3 |
| 20260507233634 | 52 | 135 | 0.0 | 0.0 | 0.00 | 0.00 | 0.00 | 64 | 997.5 |
| 20260507233213 | 52 | 225 | 0.0 | 0.0 | 0.00 | 0.00 | 0.00 | 64 | 997.5 |
| 20260507233133 | 52 | 225 | 0.0 | 0.0 | 0.00 | 0.00 | 0.00 | 64 | 997.5 |
| 20260507232128 | 52 | 180 | 0.0 | 0.0 | 0.00 | 0.00 | 0.00 | 63 | 997.5 |
| 20260507231626 | 52 | 225 | 0.0 | 0.0 | 0.00 | 0.00 | 0.00 | 63 | 997.5 |
| 20260507231124 | 52 | 180 | 0.0 | 0.0 | 0.00 | 0.00 | 0.00 | 64 | 997.4 |
| 20260507230621 | 52 | 315 | 0.0 | 0.0 | 0.00 | 0.00 | 0.00 | 63 | 997.7 |
| 20260507230120 | 52 | 270 | 0.0 | 0.0 | 0.00 | 0.00 | 0.00 | 63 | 997.7 |
| 20260507225617 | 52 | 270 | 0.0 | 0.0 | 0.00 | 0.00 | 0.00 | 64 | 997.8 |
| 20260507225115 | 52 | 315 | 0.0 | 0.0 | 0.00 | 0.00 | 0.00 | 63 | 997.7 |
| 20260507224651 | 53 | 315 | 0.0 | 0.0 | 0.00 | 0.00 | 0.00 | 63 | 997.8 |
| 20260507224612 | 53 | 315 | 0.0 | 0.0 | 0.00 | 0.00 | 0.00 | 63 | 997.8 |
| 20260507224150 | 53 | 258 | 0.0 | 0.0 | 0.00 | 0.00 | 0.00 | 63 | 997.9 |
| 20260507224111 | 53 | 258 | 0.0 | 0.0 | 0.00 | 0.00 | 0.00 | 63 | 997.9 |
| 20260507223608 | 53 | 315 | 0.0 | 0.0 | 0.00 | 0.00 | 0.00 | 63 | 997.8 |
| 20260507222604 | 53 | 292 | 0.0 | 0.0 | 0.00 | 0.00 | 0.00 | 63 | 997.9 |
| 20260507222133 | 53 | 270 | 0.0 | 0.0 | 0.00 | 0.00 | 0.00 | 63 | 998.2 |
| 20260507222102 | 53 | 270 | 0.0 | 0.0 | 0.00 | 0.00 | 0.00 | 63 | 998.2 |
| 20260507221148 | 53 | 303 | 0.0 | 0.0 | 0.00 | 0.00 | 0.00 | 62 | 998.0 |
| 20260507221058 | 53 | 303 | 0.0 | 0.0 | 0.00 | 0.00 | 0.00 | 62 | 998.0 |
| 20260507220555 | 53 | 270 | 0.0 | 0.0 | 0.00 | 0.00 | 0.00 | 63 | 998.1 |
| 20260507220140 | 53 | 292 | 0.0 | 0.0 | 0.00 | 0.00 | 0.00 | 62 | 998.3 |
| 20260507220053 | 53 | 292 | 0.0 | 0.0 | 0.00 | 0.00 | 0.00 | 62 | 998.3 |
| 20260507215551 | 53 | 337 | 0.0 | 0.0 | 0.00 | 0.00 | 0.00 | 62 | 998.4 |
| 20260507215049 | 53 | 292 | 0.0 | 0.9 | 0.00 | 0.00 | 0.00 | 62 | 998.3 |
| 20260507214630 | 53 | 270 | 0.0 | 0.0 | 0.00 | 0.00 | 0.00 | 61 | 998.2 |
| 20260507214546 | 53 | 270 | 0.0 | 0.0 | 0.00 | 0.00 | 0.00 | 61 | 998.2 |
| 20260507214045 | 53 | 315 | 0.0 | 0.0 | 0.00 | 0.00 | 0.00 | 61 | 998.2 |
| 20260507213542 | 53 | 315 | 0.0 | 0.0 | 0.00 | 0.00 | 0.00 | 61 | 998.3 |
| 20260507213125 | 53 | 292 | 0.0 | 0.0 | 0.00 | 0.00 | 0.00 | 60 | 998.2 |
| 20260507213040 | 53 | 292 | 0.0 | 0.0 | 0.00 | 0.00 | 0.00 | 60 | 998.2 |
| 20260507212626 | 54 | 303 | 0.0 | 0.0 | 0.00 | 0.00 | 0.00 | 60 | 998.3 |
| 20260507212538 | 54 | 303 | 0.0 | 0.0 | 0.00 | 0.00 | 0.00 | 60 | 998.3 |
| 20260507212036 | 54 | 292 | 0.0 | 0.0 | 0.00 | 0.00 | 0.00 | 60 | 998.4 |
| 20260507211640 | 54 | 270 | 0.0 | 0.0 | 0.00 | 0.00 | 0.00 | 59 | 998.4 |
| 20260507211533 | 54 | 270 | 0.0 | 0.0 | 0.00 | 0.00 | 0.00 | 59 | 998.4 |
| 20260507211118 | 54 | 315 | 0.0 | 0.0 | 0.00 | 0.00 | 0.00 | 59 | 998.5 |
| 20260507211032 | 54 | 315 | 0.0 | 0.0 | 0.00 | 0.00 | 0.00 | 59 | 998.5 |
| 20260507210529 | 54 | 315 | 0.0 | 0.0 | 0.00 | 0.00 | 0.00 | 58 | 998.4 |
| 20260507210111 | 54 | 270 | 0.0 | 0.0 | 0.00 | 0.00 | 0.00 | 58 | 998.4 |
| 20260507210027 | 54 | 270 | 0.0 | 0.0 | 0.00 | 0.00 | 0.00 | 58 | 998.4 |
| 20260507205525 | 54 | 270 | 0.0 | 0.0 | 0.00 | 0.00 | 0.00 | 58 | 998.3 |
| 20260507205023 | 54 | 247 | 0.0 | 0.0 | 0.00 | 0.00 | 0.00 | 57 | 998.2 |
| 20260507204612 | 54 | 303 | 0.0 | 0.0 | 0.00 | 0.00 | 0.00 | 58 | 998.2 |
| 20260507204520 | 54 | 303 | 0.0 | 0.0 | 0.00 | 0.00 | 0.00 | 58 | 998.2 |
| 20260507204104 | 54 | 270 | 0.0 | 0.0 | 0.00 | 0.00 | 0.00 | 57 | 998.0 |
| 20260507204019 | 54 | 270 | 0.0 | 0.0 | 0.00 | 0.00 | 0.00 | 57 | 998.0 |
| 20260507203516 | 55 | 315 | 0.0 | 0.0 | 0.00 | 0.00 | 0.00 | 57 | 998.1 |
| 20260507203121 | 55 | 315 | 0.0 | 0.0 | 0.00 | 0.00 | 0.00 | 56 | 997.9 |
| 20260507203014 | 55 | 315 | 0.0 | 0.0 | 0.00 | 0.00 | 0.00 | 56 | 997.9 |
| 20260507202511 | 55 | 270 | 0.0 | 0.0 | 0.00 | 0.00 | 0.00 | 56 | 998.0 |
| 20260507202047 | 55 | 225 | 0.0 | 0.0 | 0.00 | 0.00 | 0.00 | 55 | 997.9 |
| 20260507202010 | 55 | 225 | 0.0 | 0.0 | 0.00 | 0.00 | 0.00 | 55 | 997.9 |
| 20260507201539 | 55 | 270 | 0.0 | 0.0 | 0.00 | 0.00 | 0.00 | 55 | 997.7 |
| 20260507201507 | 55 | 270 | 0.0 | 0.0 | 0.00 | 0.00 | 0.00 | 55 | 997.7 |
| 20260507201105 | 55 | 270 | 0.0 | 0.0 | 0.00 | 0.00 | 0.00 | 54 | 997.7 |
| 20260507201006 | 55 | 270 | 0.0 | 0.0 | 0.00 | 0.00 | 0.00 | 54 | 997.7 |
| 20260507200503 | 55 | 292 | 0.0 | 0.0 | 0.00 | 0.00 | 0.00 | 53 | 997.6 |
| 20260507200042 | 56 | 292 | 0.0 | 0.0 | 0.00 | 0.00 | 0.00 | 53 | 997.6 |
| 20260507200001 | 56 | 292 | 0.0 | 0.0 | 0.00 | 0.00 | 0.00 | 53 | 997.6 |
| 20260507195536 | 56 | 292 | 0.0 | 0.0 | 0.00 | 0.00 | 0.00 | 53 | 997.7 |
| 20260507195458 | 56 | 292 | 0.0 | 0.0 | 0.00 | 0.00 | 0.00 | 53 | 997.7 |
| 20260507195036 | 56 | 292 | 0.0 | 0.0 | 0.00 | 0.00 | 0.00 | 53 | 997.5 |
| 20260507194957 | 56 | 292 | 0.0 | 0.0 | 0.00 | 0.00 | 0.00 | 53 | 997.5 |
| 20260507194536 | 56 | 326 | 0.0 | 0.0 | 0.00 | 0.00 | 0.00 | 53 | 997.5 |
| 20260507194454 | 56 | 326 | 0.0 | 0.0 | 0.00 | 0.00 | 0.00 | 53 | 997.5 |
| 20260507194040 | 56 | 225 | 0.0 | 0.0 | 0.00 | 0.00 | 0.00 | 51 | 997.4 |
| 20260507193952 | 56 | 225 | 0.0 | 0.0 | 0.00 | 0.00 | 0.00 | 51 | 997.4 |
| 20260507193450 | 56 | 90 | 0.0 | 0.0 | 0.00 | 0.00 | 0.00 | 51 | 997.5 |
| 20260507192948 | 56 | 270 | 0.0 | 0.0 | 0.00 | 0.00 | 0.00 | 51 | 997.3 |
| 20260507192518 | 57 | 270 | 0.0 | 0.0 | 0.00 | 0.00 | 0.00 | 51 | 997.4 |
| 20260507192445 | 57 | 270 | 0.0 | 0.0 | 0.00 | 0.00 | 0.00 | 51 | 997.4 |
| 20260507192047 | 57 | 202 | 0.0 | 0.0 | 0.00 | 0.00 | 0.00 | 51 | 997.3 |
| 20260507191944 | 57 | 202 | 0.0 | 0.0 | 0.00 | 0.00 | 0.00 | 51 | 997.3 |
| 20260507191512 | 57 | 225 | 0.0 | 0.0 | 0.00 | 0.00 | 0.00 | 51 | 997.4 |
| 20260507191441 | 57 | 225 | 0.0 | 0.0 | 0.00 | 0.00 | 0.00 | 51 | 997.4 |
| 20260507191030 | 57 | 101 | 0.0 | 0.0 | 0.00 | 0.00 | 0.00 | 51 | 997.2 |
| 20260507190939 | 57 | 101 | 0.0 | 0.0 | 0.00 | 0.00 | 0.00 | 51 | 997.2 |
| 20260507190437 | 57 | 281 | 0.0 | 0.0 | 0.00 | 0.00 | 0.00 | 51 | 997.2 |
| 20260507190013 | 57 | 315 | 0.0 | 0.0 | 0.00 | 0.00 | 0.00 | 50 | 997.2 |
| 20260507185935 | 57 | 315 | 0.0 | 0.0 | 0.00 | 0.00 | 0.00 | 50 | 997.2 |
| 20260507185432 | 57 | 67 | 0.0 | 0.0 | 0.00 | 0.00 | 0.00 | 50 | 997.1 |
| 20260507185013 | 57 | 292 | 0.0 | 0.0 | 0.00 | 0.00 | 0.00 | 50 | 997.2 |
| 20260507184931 | 57 | 292 | 0.0 | 0.0 | 0.00 | 0.00 | 0.00 | 50 | 997.2 |
| 20260507184504 | 57 | 292 | 0.0 | 0.0 | 0.00 | 0.00 | 0.00 | 50 | 997.2 |
| 20260507184428 | 57 | 292 | 0.0 | 0.0 | 0.00 | 0.00 | 0.00 | 50 | 997.2 |
| 20260507184010 | 58 | 270 | 0.0 | 0.0 | 0.00 | 0.00 | 0.00 | 49 | 997.2 |
| 20260507183926 | 58 | 270 | 0.0 | 0.0 | 0.00 | 0.00 | 0.00 | 49 | 997.2 |
| 20260507183424 | 58 | 315 | 0.0 | 0.0 | 0.00 | 0.00 | 0.00 | 48 | 997.0 |
| 20260507182922 | 58 | 315 | 0.0 | 0.0 | 0.00 | 0.00 | 0.00 | 47 | 996.8 |
| 20260507182419 | 58 | 180 | 0.0 | 0.0 | 0.00 | 0.00 | 0.00 | 47 | 996.8 |
| 20260507181959 | 58 | 270 | 0.0 | 0.0 | 0.00 | 0.00 | 0.00 | 46 | 996.9 |
| 20260507181918 | 58 | 270 | 0.0 | 0.0 | 0.00 | 0.00 | 0.00 | 46 | 996.9 |
| 20260507181415 | 59 | 315 | 0.0 | 0.0 | 0.00 | 0.00 | 0.00 | 47 | 996.8 |
| 20260507180948 | 59 | 292 | 0.0 | 0.0 | 0.00 | 0.00 | 0.00 | 46 | 996.8 |
| 20260507180913 | 59 | 292 | 0.0 | 0.0 | 0.00 | 0.00 | 0.00 | 46 | 996.8 |
| 20260507180411 | 59 | 315 | 0.0 | 0.0 | 0.00 | 0.00 | 0.00 | 46 | 996.6 |
| 20260507180009 | 59 | 270 | 0.0 | 0.0 | 0.00 | 0.00 | 0.00 | 46 | 996.6 |
| 20260507175909 | 59 | 270 | 0.0 | 0.0 | 0.00 | 0.00 | 0.00 | 46 | 996.6 |
| 20260507175406 | 60 | 303 | 0.0 | 0.0 | 0.00 | 0.00 | 0.00 | 45 | 996.5 |
| 20260507174905 | 60 | 270 | 0.0 | 0.0 | 0.00 | 0.00 | 0.00 | 44 | 996.3 |
| 20260507174402 | 60 | 270 | 0.0 | 0.0 | 0.00 | 0.00 | 0.00 | 43 | 996.3 |
| 20260507173934 | 61 | 292 | 0.0 | 0.0 | 0.00 | 0.00 | 0.00 | 43 | 996.2 |
| 20260507173900 | 61 | 292 | 0.0 | 0.0 | 0.00 | 0.00 | 0.00 | 43 | 996.2 |
| 20260507173358 | 61 | 292 | 0.0 | 0.0 | 0.00 | 0.00 | 0.00 | 43 | 996.4 |
| 20260507172949 | 62 | 292 | 0.0 | 0.0 | 0.00 | 0.00 | 0.00 | 41 | 996.2 |
| 20260507172856 | 62 | 292 | 0.0 | 0.0 | 0.00 | 0.00 | 0.00 | 41 | 996.2 |
| 20260507172353 | 62 | 326 | 0.0 | 0.0 | 0.00 | 0.00 | 0.00 | 41 | 996.2 |
| 20260507171929 | 63 | 303 | 0.0 | 0.0 | 0.00 | 0.00 | 0.00 | 39 | 996.2 |
| 20260507171852 | 63 | 303 | 0.0 | 0.0 | 0.00 | 0.00 | 0.00 | 39 | 996.2 |
| 20260507171448 | 63 | 270 | 0.0 | 0.0 | 0.00 | 0.00 | 0.00 | 40 | 996.1 |
| 20260507171349 | 63 | 270 | 0.0 | 0.0 | 0.00 | 0.00 | 0.00 | 40 | 996.1 |
| 20260507170925 | 62 | 292 | 0.0 | 0.0 | 0.00 | 0.00 | 0.00 | 39 | 996.1 |
| 20260507170847 | 62 | 292 | 0.0 | 0.0 | 0.00 | 0.00 | 0.00 | 39 | 996.1 |
| 20260507170344 | 63 | 292 | 0.0 | 0.0 | 0.00 | 0.00 | 0.00 | 38 | 996.0 |
| 20260507165937 | 63 | 303 | 0.0 | 0.0 | 0.00 | 0.00 | 0.00 | 38 | 996.0 |
| 20260507165843 | 63 | 303 | 0.0 | 0.0 | 0.00 | 0.00 | 0.00 | 38 | 996.0 |
| 20260507165340 | 63 | 292 | 0.0 | 0.0 | 0.00 | 0.00 | 0.00 | 38 | 995.9 |
| 20260507164839 | 63 | 292 | 0.0 | 0.0 | 0.00 | 0.00 | 0.00 | 37 | 995.9 |
| 20260507164336 | 64 | 281 | 0.0 | 0.0 | 0.00 | 0.00 | 0.00 | 37 | 995.9 |
| 20260507163908 | 64 | 270 | 0.0 | 2.6 | 0.00 | 0.00 | 0.00 | 36 | 996.0 |
| 20260507163834 | 64 | 270 | 0.0 | 2.6 | 0.00 | 0.00 | 0.00 | 36 | 996.0 |
| 20260507163331 | 64 | 270 | 0.0 | 0.0 | 0.00 | 0.00 | 0.00 | 36 | 995.8 |
| 20260507162923 | 65 | 281 | 4.3 | 7.0 | 0.00 | 0.00 | 0.00 | 36 | 995.9 |
| 20260507162830 | 65 | 281 | 4.3 | 7.0 | 0.00 | 0.00 | 0.00 | 36 | 995.9 |
| 20260507162327 | 65 | 270 | 8.7 | 8.7 | 0.00 | 0.00 | 0.00 | 35 | 995.8 |
| 20260507161825 | 65 | 270 | 3.5 | 5.2 | 0.00 | 0.00 | 0.00 | 32 | 995.9 |
| 20260507161323 | 65 | 315 | 5.2 | 7.8 | 0.00 | 0.00 | 0.00 | 31 | 995.8 |
| 20260507160821 | 66 | 315 | 4.3 | 7.8 | 0.00 | 0.00 | 0.00 | 32 | 995.7 |
| 20260507160318 | 65 | 315 | 6.1 | 6.1 | 0.00 | 0.00 | 0.00 | 32 | 995.9 |
| 20260507155901 | 64 | 78 | 1.7 | 6.1 | 0.00 | 0.00 | 0.00 | 33 | 995.7 |
| 20260507155817 | 64 | 78 | 1.7 | 6.1 | 0.00 | 0.00 | 0.00 | 33 | 995.7 |
| 20260507155351 | 64 | 67 | 3.5 | 7.0 | 0.00 | 0.00 | 0.00 | 33 | 995.7 |
| 20260507155314 | 64 | 67 | 3.5 | 7.0 | 0.00 | 0.00 | 0.00 | 33 | 995.7 |
| 20260507154812 | 64 | 292 | 6.1 | 11.3 | 0.00 | 0.00 | 0.00 | 33 | 995.9 |
| 20260507154310 | 65 | 315 | 8.7 | 8.7 | 0.00 | 0.00 | 0.00 | 32 | 995.9 |
| 20260507153808 | 66 | 315 | 3.5 | 10.4 | 0.00 | 0.00 | 0.00 | 31 | 996.0 |
| 20260507153346 | 67 | 270 | 7.0 | 7.8 | 0.00 | 0.00 | 0.00 | 30 | 995.9 |
| 20260507153306 | 67 | 270 | 7.0 | 7.8 | 0.00 | 0.00 | 0.00 | 30 | 995.9 |
| 20260507152804 | 67 | 270 | 2.6 | 7.8 | 0.00 | 0.00 | 0.00 | 26 | 996.0 |
| 20260507152741 | 66 | 225 | 0.0 | 0.0 | 0.00 | 0.00 | 0.00 | 29 | 995.9 |
| 20260507152301 | 67 | 258 | 0.0 | 0.0 | 0.00 | 0.00 | 0.00 | 26 | 995.9 |
| 20260507151849 | 66 | 225 | 0.0 | 0.0 | 0.00 | 0.00 | 0.00 | 29 | 995.9 |
| 20260507151759 | 66 | 225 | 0.0 | 0.0 | 0.00 | 0.00 | 0.00 | 29 | 995.9 |
| 20260507151257 | 65 | 270 | 0.0 | 0.0 | 0.00 | 0.00 | 0.00 | 29 | 995.9 |
| 20260507150835 | 65 | 180 | 0.0 | 0.0 | 0.00 | 0.00 | 0.00 | 29 | 996.1 |
| 20260507150755 | 65 | 180 | 0.0 | 0.0 | 0.00 | 0.00 | 0.00 | 29 | 996.1 |
| 20260507150252 | 66 | 281 | 0.0 | 0.0 | 0.00 | 0.00 | 0.00 | 28 | 996.0 |
| 20260507145751 | 67 | 247 | 0.0 | 1.7 | 0.00 | 0.00 | 0.00 | 26 | 996.0 |
| 20260507145248 | 67 | 292 | 0.0 | 0.0 | 0.00 | 0.00 | 0.00 | 25 | 996.1 |
| 20260507144827 | 67 | 213 | 0.0 | 0.9 | 0.00 | 0.00 | 0.00 | 25 | 996.3 |
| 20260507144746 | 67 | 213 | 0.0 | 0.9 | 0.00 | 0.00 | 0.00 | 25 | 996.3 |
| 20260507144244 | 68 | 315 | 0.0 | 0.0 | 0.00 | 0.00 | 0.00 | 25 | 996.2 |
| 20260507143742 | 67 | 225 | 0.0 | 0.0 | 0.00 | 0.00 | 0.00 | 24 | 996.3 |
| 20260507143239 | 66 | 270 | 0.0 | 0.0 | 0.00 | 0.00 | 0.00 | 28 | 996.2 |
| 20260507142738 | 65 | 270 | 0.0 | 0.0 | 0.00 | 0.00 | 0.00 | 28 | 996.4 |
| 20260507142235 | 65 | 292 | 0.0 | 0.0 | 0.00 | 0.00 | 0.00 | 28 | 996.5 |
| 20260507141809 | 65 | 315 | 0.0 | 0.0 | 0.00 | 0.00 | 0.00 | 28 | 996.6 |
| 20260507141733 | 65 | 315 | 0.0 | 0.0 | 0.00 | 0.00 | 0.00 | 28 | 996.6 |
| 20260507141231 | 66 | 225 | 0.0 | 0.0 | 0.00 | 0.00 | 0.00 | 28 | 996.6 |
| 20260507140729 | 66 | 270 | 0.0 | 0.0 | 0.00 | 0.00 | 0.00 | 27 | 996.6 |
| 20260507140257 | 66 | 315 | 0.0 | 7.8 | 0.00 | 0.00 | 0.00 | 26 | 996.6 |
| 20260507140226 | 66 | 315 | 0.0 | 7.8 | 0.00 | 0.00 | 0.00 | 26 | 996.6 |
| 20260507135725 | 66 | 270 | 3.5 | 7.0 | 0.00 | 0.00 | 0.00 | 27 | 996.7 |
| 20260507135222 | 65 | 292 | 4.3 | 8.7 | 0.00 | 0.00 | 0.00 | 28 | 996.7 |
| 20260507134217 | 65 | 135 | 0.0 | 2.6 | 0.00 | 0.00 | 0.00 | 27 | 996.7 |
| 20260507133716 | 65 | 270 | 0.0 | 5.2 | 0.00 | 0.00 | 0.00 | 27 | 996.7 |